AirNav   Everest Fuels
 
 759 users online  

CA22 Lauppes Strip Airport
Sacramento, California, USA

GOING TO SACRAMENTO?


FAA INFORMATION EFFECTIVE 04 NOVEMBER 2021

Location

FAA Identifier: CA22
Lat/Long: 38-45-33.6460N 121-35-06.8520W
38-45.560767N 121-35.114200W
38.7593461,-121.5852367
(estimated)
Elevation: 23 ft. / 7 m (estimated)
Variation: 16E (1985)
From city: 10 miles NW of SACRAMENTO, CA
Time zone: UTC -7 (UTC -8 during Standard Time)
Zip code: 95659

Airport Operations

Airport use: Private use. Permission required prior to landing
Activation date: 01/1977
Control tower: no
ARTCC: OAKLAND CENTER
FSS: RANCHO MURIETA FLIGHT SERVICE STATION
Attendance: UNATNDD
Wind indicator: no
Segmented circle: no

Airport Communications

WX ASOS at SMF (4 nm S): PHONE 916-649-3996
WX AWOS-3 at MCC (10 nm SE): 125.975 (916-641-1272)
WX AWOS-3 at LHM (14 nm NE): 124.25 (916-645-0698)
WX ASOS at SAC (15 nm S): PHONE 916-421-0923
WX AWOS-3 at EDU (17 nm SW): 119.025 (530-754-6839)
WX AWOS-3P at DWA (17 nm SW): 125.775 (530-750-2759)
WX AWOS-3PT at MHR (18 nm SE): 118.325 (916-366-3371)

Nearby radio navigation aids

VOR radial/distance  VOR name  Freq  Var
MCCr286/10.1MC CLELLAN VOR/DME109.2017E
SACr338/19.0SACRAMENTO VORTAC115.2017E
MYVr166/20.4MARYSVILLE VOR/DME110.8016E
ILAr114/27.9WILLIAMS VORTAC114.4018E
HNWr256/39.2HANGTOWN VOR/DME115.5017E

Airport Services

Runway Information

Runway 15/33

Dimensions: 2000 x 30 ft. / 610 x 9 m
Surface: dirt
RUNWAY 15  RUNWAY 33
Traffic pattern: leftleft

Airport Ownership and Management from official FAA records

Ownership: Privately-owned
Owner: ALAN LAUPPE
8913 CREESTONE CIR.
ROSEVILLE, CA 95747
Phone (916) 765-1367

Airport Operational Statistics

Aircraft based on the field: 2
Single engine airplanes: 2
    

Additional Remarks

E111-2 ESTAB & MAINT RDO COMM WITH SACRAMENTO ATCT WITHIN THE SACRAMENTO METRO CTL ZONE.
FOR CD CTC NORCAL APCH AT 916-361-6874.

Instrument Procedures

There are no published instrument procedures at CA22.

Some nearby airports with instrument procedures:

KSMF - Sacramento International Airport (4 nm S)
KMCC - Mc Clellan Airfield (10 nm SE)
KLHM - Lincoln Regional Airport/Karl Harder Field (14 nm NE)
O41 - Watts-Woodland Airport (14 nm W)
KSAC - Sacramento Executive Airport (15 nm S)
KEDU - University Airport (17 nm SW)
KDWA - Yolo County Airport (17 nm SW)
KMHR - Sacramento Mather Airport (18 nm SE)
 
Loc | Ops | Rwys | IFR | FBO | Links
Com | Nav | Svcs | Stats | Notes

Sonoma Jet Center
 
Area around CA22 (Lauppes Strip Airport)
 
Road maps at: MapQuest Bing Google
 
Aerial photo
No photo
 
Sectional chart

 
Airport distance calculator
Flying to Lauppes Strip Airport? Find the distance to fly.

From to CA22

Sunrise and sunset
Times for 30-Nov-2021
 Local
(UTC-8)
 Zulu
(UTC)
Morning civil twilight06:3614:36
Sunrise07:0615:06
Sunset16:4400:44
Evening civil twilight17:1401:14

Current date and time
Zulu (UTC)  01-Dec-2021 05:43:11
Local (UTC-8)  30-Nov-2021 21:43:11
 
METAR
KSMF 
4nm S 
010453Z 00000KT 3SM BR FEW220 09/08 A3011 RMK AO2 SLP197 T00890083
KMCC 
10nm SE 
010515Z AUTO 00000KT 4SM BR 12/11 A3012 RMK AO2
KLHM 
14nm NE 
010515Z AUTO 00000KT 7SM CLR 06/06 A3011 RMK AO1
KSAC 
16nm S 
010517Z AUTO 00000KT 1/4SM FG VV009 08/08 A3012 RMK AO2 T00780078
KEDU 
17nm SW 
010515Z AUTO 00000KT 5SM CLR 08/08 A3013 RMK AO1
KDWA 
17nm SW 
010515Z AUTO 00000KT 10SM CLR 08/08 A3013 RMK AO2
KMHR 
20nm SE 
010515Z AUTO 00000KT 1 3/4SM BR CLR 08/08 A3011 RMK A01
TAF
KSMF 
4nm S 
301720Z 3018/0118 VRB05KT 5SM BR FEW005 FM301830 34008KT P6SM SCT250 FM010600 VRB05KT 4SM BR SKC
KMCC 
10nm SE 
010420Z 0104/0124 VRB04KT 3SM BR SKC FM011100 VRB04KT 1/2SM FG SKC FM011400 VRB04KT 1/4SM FG SKC FM012200 34002KT 6SM BR SKC
KSAC 
16nm S 
301720Z 3018/0118 34007KT P6SM SCT250 FM010600 VRB03KT 5SM BR SKC AMD NOT SKED
KMHR 
20nm SE 
301720Z 3018/0118 34007KT P6SM SCT250 FM010900 08003KT 5SM BR SKC
NOTAMs
Click for the latest NOTAMs
NOTAMs are issued by the DoD/FAA and will open in a separate window not controlled by AirNav.

 

 
 

Would you like to see your business listed on this page?

 If your business provides an interesting product or service to pilots, flight crews, aircraft, or users of the Lauppes Strip Airport, you should consider listing it here.  To start the listing process, click on the button below
 
Add a business
 

Other Pages about Lauppes Strip Airport

Update a link
 
Copyright © AirNav, LLC. All rights reserved. Privacy Policy  Contact